Regional Weather Roundup
Issued by NWS

Home | Current Version | Previous Version | Text Only | Print | Product List | Glossary Off
Versions: 1 2 3 4 5 6 7 8 9 10 11 12 13 14 15 16 17 18 19 20 21 22 23 24 25 26 27 28 29 30 31 32 33 34 35 36 37 38 39 40 41 42 43 44 45 46 47 48 49 50

000
ASUS43 KMKX 010711
RWRWI

WISCONSIN REGIONAL WEATHER ROUNDUP
NATIONAL WEATHER SERVICE MILWAUKEE/SULLIVAN WI
200 AM CDT SAT AUG 01 2015

NOTE: "FAIR" INDICATES FEW OR NO CLOUDS BELOW 12,000 FEET WITH NO
SIGNIFICANT WEATHER AND/OR OBSTRUCTIONS TO VISIBILITY.

WIZ001-002-006>008-014>016-023>028-010800-
NORTHWEST WISCONSIN

CITY           SKY/WX    TMP DP  RH WIND       PRES   REMARKS
SUPERIOR ARPT  CLEAR     59  51  75 W7        29.94S
ASHLAND        CLEAR     56  51  84 SW6       29.92F
HAYWARD        CLEAR     52  49  89 S5        29.97S
SIREN          CLEAR     57  50  77 W3        29.99S
CUMBERLAND     CLEAR     55  50  82 W8        29.99S
RICE LAKE      CLEAR     55  53  93 CALM      30.00F
CHETEK         CLEAR     56  54  93 CALM      29.99S
LADYSMITH      CLEAR     57  52  82 SW3       29.99S
EAU CLAIRE     CLEAR     60  54  80 S3        29.98S
MENOMONIE      PTCLDY    63  56  80 W5        29.99S
NEW RICHMOND   MOCLDY    64  56  75 W6        30.00S
OSCEOLA        MOCLDY    60  60 100 CALM      30.02S
$$

WIZ003>005-009-010-017-018-010800-
NORTH CENTRAL WISCONSIN

CITY           SKY/WX    TMP DP  RH WIND       PRES   REMARKS
MANITOWISH WTR   N/A     49  49 100 SW3       29.94S FOG
ARBOR VITAE    CLEAR     57  55  92 CALM      29.94S
WOODRUFF       CLEAR     57  55  92 CALM      29.94S
RHINELANDER    PTCLDY    54  52  93 W5        29.95F FOG
EAGLE RIVER    CLOUDY    52  52 100 SW6       29.93F FOG
LAND O LAKES   PTCLDY    52  52  97 CALM      29.93F
PHILLIPS       CLEAR     56  52  85 W3        29.96S
TOMAHAWK       CLEAR     53  51  90 CALM      29.96S
MEDFORD        CLEAR     58  52  79 W6        29.97F
MERRILL        NOT AVBL
$$

WIZ029-030-035-036-043>047-010800-
CENTRAL WISCONSIN

CITY           SKY/WX    TMP DP  RH WIND       PRES   REMARKS
WAUSAU         PTCLDY    62  53  72 NW9       29.95S
MOSINEE        CLEAR     59  52  77 W5        29.97F
MARSHFIELD     CLEAR     60  50  69 W8        29.98S
STEVENS POINT  CLEAR     62  51  67 W5        29.97S
WAUPACA        CLEAR     64  54  68 W6        29.96S
WAUTOMA        CLEAR     55  51  86 CALM      29.98S
WISC RAPIDS    CLEAR     59  51  75 W5        29.99S
CAMP DOUGLAS   CLEAR     51  51 100 NW2       29.98F
$$

WIZ011>013-019>022-031-037>040-048>050-010800-
NORTHEAST WISCONSIN

CITY           SKY/WX    TMP DP  RH WIND       PRES   REMARKS
ANTIGO         CLEAR     56  54  92 W7        29.95F
SHAWANO        CLEAR     63  56  80 W6        29.93F
OCONTO         PTCLDY    58  55  89 CALM      29.90F
STURGEON BAY   CLOUDY    63  54  72 SW5       29.92F
GREEN BAY      PTCLDY    62  56  80 W6        29.92F
MANITOWOC      MOCLDY    66  55  67 MISG      29.93F
APPLETON       CLEAR     63  52  67 W8        29.95S
CLINTONVILLE   CLEAR     59  54  82 W6        29.94S
OSHKOSH        CLEAR     64  51  62 SW5       29.95F
$$

WIZ032>034-041-042-053>061-010800-
SOUTHWEST WISCONSIN

CITY           SKY/WX    TMP DP  RH WIND       PRES   REMARKS
LA CROSSE      CLEAR     65  58  78 S5        30.00S
SPARTA         CLEAR     52  50  93 CALM      30.01S
VIROQUA        CLEAR     61  56  83 SW6       30.03S
BOSCOBEL       PTCLDY    60  57  89 SW3       30.02F
PRAIRIE DU CHI CLEAR     64  56  75 CALM      30.02F
PLATTEVILLE    CLEAR     62  57  84 W6        30.03F
$$

WIZ056-057-062-063-064-067-068-010800-
SOUTH CENTRAL WISCONSIN

CITY           SKY/WX    TMP DP  RH WIND       PRES   REMARKS
REEDSBURG      CLEAR     56  53  90 CALM      30.00S
BARABOO/DELLS  CLEAR     57  50  77 SW3       30.00S
LONE ROCK      CLEAR     55  52  89 CALM      30.02S
MINERAL POINT  CLEAR     61  55  82 W3        30.03F
MADISON        CLEAR     65  52  62 W7        29.99S
MIDDLETON      CLEAR     59  53  80 CALM      30.01S
WATERTOWN      CLEAR     58  54  88 CALM      29.98S
MONROE         CLEAR     63  54  72 W12       30.02S
JANESVILLE     CLEAR     61  52  72 CALM      30.00S
$$

WIZ051-052-058>065-066-070>072-010800-
SOUTHEAST WISCONSIN

CITY           SKY/WX    TMP DP  RH WIND       PRES   REMARKS
MILWAUKEE      PTCLDY    69  51  52 W3        29.96F
WAUKESHA       CLEAR     61  50  67 W7        29.99S
MILWAUKEE/TIMM CLEAR     63  50  63 W5        29.97F
RACINE         CLEAR     65  52  62 W3        29.98F
BURLINGTON     CLEAR     58  51  79 SW3       29.99R
KENOSHA        CLEAR     60  52  74 W5        29.98S
FOND DU LAC    CLEAR     62  52  69 SW7       29.96F
SHEBOYGAN      PTCLDY    61  56  83 S12G22    29.94F
WEST BEND      CLEAR     63  50  63 W5        29.96F
JUNEAU         CLEAR     56  52  88 SW3       29.98F
$$

LSZ147-162-010800-
LAKE SUPERIOR

STATION/POSITION TIME  TEMP    WIND        PRES    WAVE
                       AIR SEA DIR/SP/G            HT/PER
                 (UTC) (F)     (DEG/KT/KT) (MB)    (FT/S)
W MID LAKE BUOY  0650   58 53  270/ 14/ 17 1011.0F   1/ 3
DEVILS ISLAND    0700   58     260/  9/ 10 1012.5R
PORT WING        0600   64     210/  6/  8 1013.5R
SAXON HARBOR     0640   60                 1012.2F
$$

LMZ867-665-643>646-010800-
LAKE MICHIGAN

STATION/POSITION TIME  TEMP    WIND        PRES    WAVE
                       AIR SEA DIR/SP/G            HT/PER
                 (UTC) (F)     (DEG/KT/KT) (MB)    (FT/S)
CHAMBERS ISLAND  0600   67     230/  7/ 11 1012.2F
S GREEN BAY BUOY 0700   64 70  260/ 10/ 12 1013.9F
N MID LAKE BUOY  0650   68 68  260/ 14/ 16 1010.7F   1/ 3
NORTHPORT PIER   0600   68     270/  4/  8 1011.5F
SISTER BAY       0644   69     330/ 19/ 21   N/A
ALGOMA LAKESHORE 0612             CALM       N/A
KEWAUNEE LAKESHO 0600   63     310/  3/  5 1012.7R
SHEBOYGAN LAKESH 0700   68     260/  7/  9 1013.7F
PORT WASHINGTON  0600   68     280/  4/  7 1014.9S
ATWATER BUOY     0600   69 68  270/  8/ 10 1015.9F
MILWAUKEE LAKESH 0600   70     280/  7/  9   N/A
KENOSHA   LAKESH 0700   69     270/  9/ 11 1014.6S
$$

TC  - TEMPERATURE IN CELSIUS
VSB - VISIBILITY IN STATUTE MILES
WCI - WIND CHILL INDEX
HX  - HEAT INDEX




USA.gov is the U.S. government's official web portal to all federal, state and local government web resources and services.